Charter Quote
Worldwide +44-20-3874-8091 Call
Select Language Lang
SAFETY RELIABILITY EXPERIENCE

Plymouth Muni Airport (KPYM) - Jet Charter Services

AIRPORT INFORMATION
ICAOKPYM
IATAPYM
LOCATIONPlymouth, MA, United States
FACILITY TYPEAIRPORT

At Paramount Business Jets you can hire chartered private jets to and from Plymouth Muni Airport with as little as 4 hours of notice. All flights booked via Paramount Business Jets are operated by certified direct air carriers that meet and exceed the FAA part 135 and 121 protocol or a foreign equivalent safety authority. Furthermore, Paramount Business Jets subscribes to ARGUS for their third party safety checks of operators, aircraft, and crews prior each and every flight to and from Plymouth Muni Airport and worldwide.

  • Quote a trip using Plymouth Muni Airport or call us 24/7 - 365 days a year at +44-20-3874-8091.
Questions? Call +44-20-3874-8091

METAR Weather Data at Plymouth Muni Airport, KPYM, PYM

STATIONKPYM
OBSERVEDThu Apr 25, 20:52 UTC
NOWThu Apr 25, 21:46 UTC
AGE54 min ago
WINDESE at 15 mph
VISIBILITY10 miles
CLOUDSclear skies
TEMP57°F (14°C)
DEWPT39°F (4°C)
HUMIDITY51%
BAROMETER1014 hPa (29.93 in Hg)
METARKPYM 252052Z AUTO 11013KT 10SM CLR 14/04 A2993 RMK AO2 SLP137 T01390044 55002

Call us on +44-20-3874-8091 (24 Hours) to Hire a Private Jet or Get a Quick Quote.

Find Airports Near any Location

Processing
...